TimeMDT,TemperatureF,Dew PointF,Humidity,Sea Level PressureIn,VisibilityMPH,Wind Direction,Wind SpeedMPH,Gust SpeedMPH,PrecipitationIn,Events,Conditions,WindDirDegrees,DateUTC
12:53 AM,54.0,24.1,31,30.05,10.0,Calm,Calm,-,N/A,,Clear,0,2012-09-22 06:53:00
1:53 AM,50.0,19.9,31,30.07,10.0,SSW,3.5,-,N/A,,Clear,200,2012-09-22 07:53:00
2:53 AM,48.0,19.9,33,30.08,10.0,Calm,Calm,-,N/A,,Clear,0,2012-09-22 08:53:00
3:53 AM,48.9,21.0,33,30.08,10.0,Calm,Calm,-,N/A,,Clear,0,2012-09-22 09:53:00
4:53 AM,46.9,21.9,37,30.09,10.0,Calm,Calm,-,N/A,,Clear,0,2012-09-22 10:53:00
5:53 AM,45.0,21.0,39,30.11,10.0,SSW,3.5,-,N/A,,Clear,210,2012-09-22 11:53:00
6:53 AM,43.0,21.0,42,30.14,10.0,Calm,Calm,-,N/A,,Clear,0,2012-09-22 12:53:00
7:53 AM,45.0,21.9,40,30.17,10.0,Calm,Calm,-,N/A,,Clear,0,2012-09-22 13:53:00
8:53 AM,52.0,25.0,35,30.17,10.0,Calm,Calm,-,N/A,,Clear,0,2012-09-22 14:53:00
9:53 AM,59.0,25.0,27,30.17,10.0,Calm,Calm,-,N/A,,Clear,0,2012-09-22 15:53:00
10:53 AM,66.0,28.0,24,30.14,10.0,Calm,Calm,-,N/A,,Clear,0,2012-09-22 16:53:00
11:53 AM,71.1,28.9,21,30.12,10.0,NNE,3.5,-,N/A,,Clear,30,2012-09-22 17:53:00
12:53 PM,75.9,24.1,15,30.08,10.0,Calm,Calm,-,N/A,,Clear,0,2012-09-22 18:53:00
1:53 PM,80.1,25.0,13,30.04,10.0,WNW,8.1,-,N/A,,Clear,300,2012-09-22 19:53:00
2:53 PM,84.0,18.0,9,30.01,10.0,West,17.3,-,N/A,,Clear,270,2012-09-22 20:53:00
3:53 PM,84.0,19.0,9,29.99,10.0,West,17.3,25.3,N/A,,Clear,270,2012-09-22 21:53:00
4:53 PM,82.9,19.0,9,29.99,10.0,West,17.3,24.2,N/A,,Clear,270,2012-09-22 22:53:00
5:53 PM,82.9,18.0,9,29.99,10.0,West,15.0,-,N/A,,Clear,270,2012-09-22 23:53:00
6:53 PM,78.1,17.1,10,30.01,10.0,WSW,11.5,-,N/A,,Clear,250,2012-09-23 00:53:00
7:53 PM,72.0,19.0,13,30.04,10.0,West,9.2,-,N/A,,Clear,260,2012-09-23 01:53:00
8:53 PM,64.9,18.0,16,30.06,10.0,Calm,Calm,-,N/A,,Clear,0,2012-09-23 02:53:00
9:53 PM,60.1,19.0,20,30.07,10.0,East,6.9,-,N/A,,Clear,100,2012-09-23 03:53:00
10:53 PM,55.9,19.9,25,30.08,10.0,Calm,Calm,-,N/A,,Clear,0,2012-09-23 04:53:00
11:53 PM,55.9,24.1,29,30.07,10.0,Calm,Calm,-,N/A,,Clear,0,2012-09-23 05:53:00